Location: Newark
(57.4820°N, 4.1923°W)
Time: 15:03:30
(UTC+00:00)

N. Korean satellite - Visible Passes

Search period start: 23 October 2019 00:00
Search period end: 02 November 2019 00:00
Orbit: 455 x 508 km, 97.2° (Epoch: 22 October)

Date Brightness Start Highest point End Pass type
(mag) Time Alt. Az. Time Alt. Az. Time Alt. Az.
23 Oct 10.2 05:04:59 10° ENE 05:06:49 13° E 05:08:39 10° ESE visible
24 Oct 7.5 06:11:49 10° NNE 06:15:24 54° E 06:19:00 10° S visible
24 Oct 10.1 18:30:41 10° WSW 18:32:34 14° W 18:34:30 10° NW visible
25 Oct 8.8 05:46:40 10° NNE 05:49:58 31° E 05:53:16 10° SSE visible
25 Oct 9.3 18:04:10 10° SSW 18:07:00 23° W 18:09:53 10° NW visible
26 Oct 9.7 05:21:47 10° NE 05:24:27 19° E 05:27:08 10° SE visible
26 Oct 8.2 17:38:13 10° S 17:41:31 40° W 17:44:53 10° NNW visible
27 Oct 10.4 04:57:33 10° ENE 04:58:51 12° E 05:00:10 10° ESE visible
27 Oct 6.8 06:29:12 10° NNE 06:32:52 81° ESE 06:36:35 10° SSW visible
28 Oct 7.9 06:03:57 10° NNE 06:07:30 45° E 06:11:04 10° S visible
28 Oct 9.9 18:22:18 10° SW 18:24:35 16° W 18:26:56 10° NW visible
29 Oct 9.1 05:38:51 10° NE 05:42:02 27° E 05:45:13 10° SSE visible
29 Oct 9.0 17:56:00 10° SSW 17:59:02 27° W 18:02:08 10° NNW visible
30 Oct 9.9 05:14:03 10° NE 05:16:29 17° E 05:18:55 10° SE visible
30 Oct 7.7 17:30:09 10° S 17:33:33 48° W 17:37:02 10° NNW visible
31 Oct 7.1 06:21:16 10° NNE 06:24:58 68° ESE 06:28:40 10° S visible
31 Oct 10.2 18:40:53 10° WSW 18:42:12 12° W 18:43:31 10° WNW visible
01 Nov 8.3 05:56:04 10° NNE 05:59:33 39° E 06:03:03 10° SSE visible
01 Nov 9.6 18:13:56 10° SW 18:16:34 19° W 18:19:14 10° NW visible
